Location: Ferintosh
(52.7647°N, 112.9692°W)
Time: 18:37:52
(UTC+00:00)

A-11 Canister half - Pass Details

Date: 27 May 2024
Orbit: 1515 x 1685 km, 47.2° (Epoch: 12 June)

Event Time Altitude Azimuth Distance (km) Brightness Sun altitude
Rises 09:06:53 0° 233° (SW) 4,793 - -12.8°
Reaches altitude 10° 09:10:07 10° 228° (SW) 3,785 - -12.6°
Exits shadow 09:10:40 12° 227° (SW) 3,621 10.4 -12.6°
Maximum altitude 09:19:10 50° 157° (SSE) 1,906 9.2 -12.1°
Drops below altitude 10° 09:27:58 10° 86° (E) 3,691 11.4 -11.5°
Sets 09:31:05 0° 82° (E) 4,666 12.1 -11.2°
